Tracking 32139 objects as of 15-Nov-2025
HD Live streaming from Space Station
objects crossing your sky now

STARLINK-35637

Track STARLINK-35637 now!
10-day predictions
STARLINK-35637 is classified as:


NORAD ID: 66130
Int'l Code: 2025-237S
Perigee: 428.1 km
Apogee: 429.4 km
Inclination: 53.2 °
Period: 93.0 minutes
Semi major axis: 6799 km
RCS: Unknown
Launch date: October 22, 2025
Source: United States (US)
Launch site: AIR FORCE WESTERN TEST RANGE (AFWTR)
Your satellite tracking list
Your tracking list is empty




NASA's NSSDC Master Catalog

Two Line Element Set (TLE):
1 66130U 25237S   25319.50003471 -.02051304  00000-0 -42877-1 0  9991
2 66130  53.1601 215.9378 0000960 125.3981 253.1890 15.48332218  5104
Source of the keplerian elements: AFSPC